Wind_Speed
11 11 12 12 12 11 12 14 13 12 11 12 13 13 12 11 11 10 9 9 9 9 9 9 9 8 8 8 8 8 8 9 8 8 8 8 8 8 8 8 8 8 8 8 8 8 8 9 10 10 10 9 8 8 8 7 7 6 5 5 5 5 4 3 3 2 2 2 2 2 2 3 4 5 6 7 9 11 12 13 12 12 11 9 8
10 10 11 11 12 12 13 13 12 11 12 13 13 13 11 11 10 10 9 9 9 9 9 9 8 8 8 8 8 8 8 8 8 8 8 8 8 8 8 8 8 8 8 8 7 7 8 8 9 10 9 9 8 8 7 7 7 6 5 4 4 4 3 3 3 3 3 3 3 3 3 3 4 5 6 7 9 11 12 13 13 12 11 10 9
9 10 11 11 12 12 12 11 10 11 11 12 12 12 11 11 10 10 9 9 9 8 8 9 9 8 8 8 8 8 8 8 8 8 8 8 8 8 8 8 8 8 8 8 7 7 7 7 8 9 9 8 8 8 7 7 6 6 5 4 4 3 3 3 3 4 4 4 4 3 3 4 4 5 6 7 9 11 12 13 13 13 12 11 10
9 9 9 10 11 11 11 9 10 11 11 11 11 11 10 11 10 10 9 9 8 8 9 9 8 8 8 8 8 7 7 8 8 8 8 8 8 8 8 8 8 8 8 7 7 7 7 7 7 8 8 7 7 7 7 6 6 5 5 4 4 4 4 4 3 4 5 4 4 3 4 5 6 6 6 7 9 12 13 13 13 13 12 12 11
8 9 8 9 10 10 10 9 10 10 10 10 10 9 10 10 10 9 9 9 8 8 9 8 8 8 8 8 7 7 7 7 8 7 7 8 7 8 8 8 8 8 8 7 7 7 7 7 7 7 7 7 7 6 6 6 5 5 5 5 5 5 5 5 4 4 5 5 4 3 5 6 7 7 7 8 9 12 13 13 13 13 12 12 12
8 8 8 9 9 10 10 9 9 9 9 9 8 8 9 10 10 9 9 9 8 8 8 8 7 8 8 8 8 7 7 7 7 7 7 7 7 7 7 7 8 8 8 7 7 7 6 6 6 7 7 7 7 7 6 6 5 5 5 5 5 5 5 5 5 4 6 6 5 4 6 7 8 8 8 8 9 12 13 13 13 13 12 11 11
8 8 9 9 9 10 10 9 8 8 9 8 8 8 9 10 9 9 9 8 8 8 8 8 8 8 8 8 8 8 8 8 7 7 7 7 6 6 6 6 6 7 7 7 7 6 6 5 5 6 7 7 7 7 7 6 6 6 6 6 5 5 5 5 5 5 6 6 6 6 7 8 8 9 8 8 9 11 12 12 12 12 11 10 10
8 9 9 9 9 9 9 9 8 7 8 7 7 8 9 10 9 9 9 8 8 8 8 8 8 9 9 9 9 9 9 9 8 7 7 6 6 5 5 5 6 6 6 6 6 6 5 5 5 5 6 6 6 6 5 6 6 6 6 6 6 5 4 5 5 5 5 5 6 7 8 8 9 10 9 9 9 10 11 11 11 10 10 9 8
8 9 9 9 9 9 9 8 7 7 7 7 7 8 9 9 9 9 9 8 8 9 9 9 9 9 9 9 9 9 9 9 8 7 7 6 6 6 6 6 6 6 6 6 6 6 5 5 4 4 5 5 5 5 5 6 7 6 6 6 6 5 4 4 4 5 5 6 6 6 8 9 8 9 10 9 9 9 10 10 9 9 8 7 7
8 9 8 8 8 8 8 7 6 6 6 7 7 8 9 9 9 9 9 9 9 10 10 10 10 9 9 9 9 10 10 9 9 8 8 7 7 7 6 7 7 7 6 6 6 6 6 5 5 4 5 5 5 5 5 6 7 7 6 6 6 5 4 3 4 4 5 6 6 6 8 8 8 9 9 9 9 9 9 9 8 7 7 6 6
8 8 7 7 7 7 7 6 6 5 6 7 7 7 8 9 10 9 9 10 11 11 11 11 10 9 9 9 9 10 10 10 9 9 9 8 7 7 7 7 7 7 6 6 6 6 6 5 5 4 4 4 4 5 5 6 7 7 6 5 5 4 4 3 5 5 5 6 6 6 7 7 7 8 8 8 8 8 8 8 8 7 6 6 5
8 7 7 6 6 5 5 5 5 5 6 6 6 7 9 10 10 10 11 12 12 12 11 11 10 10 9 9 10 10 11 10 10 10 10 10 9 8 8 8 7 7 6 6 6 6 6 5 4 4 4 4 4 4 4 5 5 5 6 5 4 3 3 3 6 6 5 6 6 6 6 5 6 7 7 7 7 7 7 7 7 7 6 6 5
6 6 6 5 5 4 4 4 5 6 6 6 6 8 10 10 10 11 12 13 13 13 12 11 10 10 11 11 11 11 12 12 12 12 12 11 11 10 9 9 8 8 8 7 6 6 6 5 4 4 4 4 4 4 4 4 4 4 5 5 4 3 3 3 6 6 5 6 7 6 5 6 6 7 7 6 7 7 7 7 7 7 6 6 5
6 5 5 4 4 4 4 4 5 6 6 6 7 9 10 10 11 12 13 14 14 13 13 12 12 12 12 12 13 13 13 14 14 13 13 13 13 12 11 10 10 9 9 8 7 6 6 5 4 4 4 4 4 4 4 4 4 4 4 4 4 4 3 4 5 4 4 6 7 7 5 6 6 7 7 6 6 7 7 7 7 7 6 6 6
5 4 4 4 4 4 4 4 5 6 6 6 8 9 10 11 11 12 13 14 15 15 15 14 14 14 14 14 15 15 15 16 15 15 15 15 15 14 13 12 11 11 10 9 8 8 7 6 5 4 4 4 4 4 4 4 4 3 3 4 5 5 4 4 4 4 4 5 6 7 5 4 5 5 5 5 6 6 7 7 7 7 7 7 6
5 4 4 5 4 4 3 4 6 6 6 7 9 10 10 11 11 12 13 15 16 17 16 16 16 16 16 16 16 16 17 17 17 17 17 17 16 16 15 14 13 13 13 12 12 11 10 9 9 8 6 5 5 5 5 5 4 4 4 4 5 5 4 3 4 4 5 6 6 7 6 4 4 4 4 5 5 5 6 7 7 7 7 7 7
5 4 4 5 5 4 3 4 6 7 7 8 10 11 11 11 12 12 14 16 18 18 17 17 17 17 17 18 17 17 18 18 18 18 19 18 18 18 17 17 16 16 15 15 14 14 14 14 13 13 11 10 8 7 7 6 6 6 5 5 4 4 3 3 3 3 3 5 6 6 6 5 5 4 3 4 5 5 6 7 7 7 7 7 7
5 4 4 5 5 4 4 5 7 7 7 9 10 11 12 12 12 13 15 17 18 18 18 18 18 18 19 19 19 19 19 20 20 20 20 20 20 20 19 19 18 17 17 16 16 16 17 17 17 16 16 14 13 11 10 9 8 7 6 6 5 4 3 2 1 1 1 2 3 3 4 4 4 4 2 1 3 4 6 7 7 8 8 8 8
4 3 4 5 5 4 4 5 7 7 7 9 11 12 12 12 12 14 16 18 18 18 18 19 19 20 20 21 21 21 21 21 21 21 21 21 21 20 20 19 18 18 17 17 17 17 17 17 18 18 17 16 16 15 13 12 10 8 7 6 6 4 3 2 1 2 2 1 0 1 1 1 1 1 1 1 1 2 4 5 6 7 8 8 9
3 2 4 5 5 5 5 6 6 7 7 10 11 12 13 13 13 15 17 18 18 18 18 19 20 21 21 22 22 22 22 22 21 21 21 20 20 19 19 18 17 17 16 16 16 16 16 16 16 17 17 17 17 16 16 15 13 11 9 8 7 5 5 3 1 0 1 1 2 2 2 1 2 2 1 1 2 3 3 4 4 5 6 7 8
1 2 3 5 6 6 6 6 6 7 8 11 12 13 13 13 14 16 18 18 18 18 18 19 20 21 21 21 21 21 21 21 20 20 19 18 18 18 17 16 16 15 15 15 15 14 14 14 14 15 16 16 16 16 16 15 14 13 11 10 9 8 7 5 5 5 4 2 1 2 2 2 2 2 2 3 3 4 4 5 5 5 5 6 6
1 2 3 4 6 7 7 7 7 7 10 12 12 13 13 14 15 17 18 18 18 18 18 19 19 20 20 20 20 20 18 18 19 18 17 17 16 16 15 15 14 14 14 14 14 14 13 13 13 14 14 14 15 14 15 15 14 14 12 11 11 10 8 7 7 7 6 5 3 3 3 3 3 3 2 2 3 4 5 5 6 6 6 6 6
1 2 4 4 6 7 8 8 8 9 11 12 13 13 13 14 16 17 18 18 18 18 18 18 19 19 18 19 20 18 17 17 17 16 16 15 15 15 14 14 13 13 13 13 13 13 13 13 14 14 12 12 13 13 13 13 13 13 12 11 11 11 10 8 8 8 7 7 6 6 5 5 5 4 4 3 3 3 4 5 6 6 6 7 7
2 3 4 4 6 8 9 8 9 10 12 13 13 13 14 15 17 17 17 17 17 17 17 18 18 18 17 18 19 17 16 16 15 15 15 14 14 14 14 13 13 13 12 12 13 13 13 13 13 13 11 11 12 12 12 12 12 12 11 11 11 11 10 8 8 9 8 8 8 8 7 7 7 6 5 5 4 4 4 5 5 6 7 7 7
3 4 4 4 5 8 9 10 10 11 12 13 13 14 14 16 17 17 17 17 17 17 17 17 17 17 16 16 17 16 15 15 15 14 13 13 13 13 13 12 11 12 11 11 13 13 12 11 11 12 11 10 11 11 12 12 12 11 11 11 11 11 10 8 9 9 8 8 8 8 8 8 7 7 6 6 7 7 7 6 5 6 6 7 7
4 4 5 5 6 8 9 10 11 12 12 12 13 14 15 16 17 17 17 17 17 16 16 16 16 16 16 15 15 14 14 14 14 13 13 13 12 12 11 11 10 11 11 11 12 11 10 11 10 10 11 11 11 11 11 12 11 11 11 11 11 11 10 9 10 10 9 8 7 8 8 8 8 7 7 8 8 8 8 7 6 6 6 6 6
6 6 6 5 6 8 10 11 12 13 13 13 13 14 15 16 17 17 16 16 16 16 15 15 15 15 15 14 14 14 14 13 13 12 12 11 11 11 10 10 9 9 11 10 10 10 9 9 9 9 10 11 11 10 10 10 10 11 11 12 11 12 11 10 11 11 10 9 8 8 9 9 8 8 8 8 8 7 7 7 8 8 7 6 6
7 7 7 6 8 9 10 11 13 14 14 13 13 14 16 16 16 16 16 16 16 15 15 14 14 14 13 14 13 13 13 13 13 12 11 11 10 10 9 9 7 8 10 8 8 9 8 7 8 9 9 10 10 10 10 10 10 11 11 11 11 12 12 11 11 11 10 9 9 9 9 9 8 8 8 8 7 7 7 8 8 8 8 8 7
9 9 8 8 9 10 10 12 13 15 15 14 14 15 16 16 16 16 15 15 15 14 14 13 13 13 12 12 12 12 12 12 12 11 11 10 10 9 9 8 7 8 9 7 7 7 7 7 7 8 7 8 9 9 9 10 10 11 11 11 11 12 12 11 11 11 10 9 9 9 9 9 8 8 8 7 7 6 6 7 8 8 9 8 7
11 11 10 9 10 11 11 11 14 15 15 15 14 15 15 16 15 15 15 14 14 13 13 12 11 11 11 11 11 11 11 11 11 11 10 10 10 9 8 7 7 8 8 6 6 6 7 6 5 6 6 7 8 9 8 8 10 11 10 11 11 11 11 11 10 10 10 9 10 10 9 9 9 8 8 7 7 6 6 7 7 7 8 7 6
12 12 11 11 12 12 11 12 14 16 15 15 14 15 15 15 15 15 15 14 13 12 12 11 10 10 10 10 10 10 10 10 10 10 9 8 8 8 7 6 6 6 6 5 5 6 6 5 4 5 5 6 7 7 6 7 9 10 10 10 10 10 10 11 11 11 11 10 11 11 10 11 10 10 9 8 7 7 6 6 6 6 6 6 6
14 14 13 13 13 13 12 13 15 16 16 15 14 15 15 15 15 15 15 14 13 12 11 10 9 9 9 9 10 9 9 9 9 9 8 8 7 7 6 5 5 5 5 5 5 5 5 4 3 3 4 5 5 5 5 6 7 9 8 9 9 9 9 10 11 11 11 10 11 11 11 11 12 11 10 9 8 7 7 6 6 5 6 6 6
15 15 14 14 14 14 13 14 15 16 16 15 15 15 15 15 15 14 14 14 12 11 10 9 9 8 8 9 9 9 9 8 8 8 8 7 7 6 5 5 5 4 5 5 5 4 3 2 2 2 3 3 3 4 4 5 6 6 7 7 8 8 9 10 11 10 10 10 11 11 10 10 11 11 11 11 10 9 8 7 7 6 6 6 6
15 15 14 15 15 14 14 14 15 16 16 15 15 15 15 15 15 14 14 14 12 11 9 8 8 8 8 8 8 8 8 8 8 8 7 7 7 6 5 4 4 4 4 4 4 4 4 3 3 2 2 2 2 3 3 4 4 4 5 6 6 7 8 9 9 9 9 9 10 10 10 10 10 9 9 10 11 11 10 8 8 7 7 7 7
16 16 15 16 16 15 14 15 15 16 16 16 15 16 16 15 15 15 14 13 12 11 9 8 8 8 7 7 8 7 7 7 7 7 6 6 6 5 4 3 3 3 4 4 4 4 4 4 4 4 3 2 2 2 2 3 4 4 5 5 6 6 7 7 8 8 9 9 9 9 9 10 9 9 9 9 9 10 11 10 10 9 9 8 8
17 16 16 16 16 15 15 15 16 16 17 16 16 16 16 15 15 15 14 13 12 11 9 8 8 8 8 8 7 7 7 7 6 6 6 5 4 3 3 3 3 4 4 4 4 3 3 3 4 4 3 3 3 3 2 2 3 4 4 5 6 6 7 7 7 8 8 9 9 8 8 9 9 9 9 9 9 9 9 10 11 12 11 10 9
18 17 16 16 16 16 15 15 16 16 16 16 16 16 16 16 15 15 14 13 12 11 10 8 8 7 7 7 7 7 7 6 6 6 5 4 3 3 3 3 4 5 5 5 4 4 2 2 3 3 3 3 4 4 3 3 2 3 3 5 6 7 8 8 8 8 8 9 9 8 8 8 9 9 9 9 9 9 9 9 10 12 12 12 10
18 17 16 16 16 16 15 15 15 16 16 16 16 17 17 16 16 15 14 13 12 11 10 9 8 7 7 7 6 7 6 6 6 5 4 3 3 3 3 4 5 5 5 5 4 4 2 1 1 2 2 3 4 4 4 4 4 3 3 4 6 7 7 8 8 8 8 8 8 8 8 8 9 10 9 9 9 10 10 9 9 10 10 11 11
19 18 17 16 15 15 15 15 15 15 16 16 17 17 17 16 16 15 14 13 12 11 9 8 7 7 6 6 7 6 7 6 5 4 3 3 3 3 4 4 5 5 5 5 5 4 3 2 2 2 3 3 4 4 4 5 5 4 4 4 5 5 6 6 7 7 7 7 8 8 8 8 8 9 10 10 10 11 11 10 9 9 9 9 11
19 19 17 15 15 15 15 15 15 16 16 16 17 17 17 17 16 15 14 13 12 10 9 8 7 6 6 6 7 7 6 6 5 4 3 3 3 3 4 4 4 4 5 5 5 5 5 4 4 3 4 4 4 5 5 5 5 5 5 4 4 4 4 5 6 6 6 7 7 7 7 8 8 9 10 11 11 11 11 11 9 9 8 8 9
19 19 18 16 15 15 15 15 16 16 17 17 17 18 18 17 17 16 15 13 12 10 9 8 7 7 7 7 7 7 6 6 4 3 2 2 2 2 2 3 3 3 4 5 6 6 6 6 5 5 5 4 5 6 6 5 5 5 5 4 4 4 4 5 5 5 5 6 6 6 6 6 7 8 9 11 11 12 12 12 11 9 9 9 9
19 19 19 18 17 16 16 16 17 17 18 18 19 19 18 18 17 15 14 12 11 10 10 9 9 8 8 7 8 7 7 6 4 3 2 1 1 1 1 1 2 2 3 4 5 5 5 5 5 5 4 4 5 6 6 5 5 5 5 5 5 5 4 4 5 5 5 6 6 6 5 6 7 7 8 10 10 11 11 11 11 11 10 9 9
20 20 20 19 18 17 17 17 17 18 19 19 19 19 18 17 16 14 13 12 11 11 11 10 10 10 9 9 9 9 8 7 5 4 3 2 2 1 1 1 1 2 2 3 3 2 3 3 3 4 4 4 5 5 5 5 5 6 6 6 6 5 4 4 4 5 5 6 6 6 5 5 5 6 7 8 8 9 9 10 10 10 10 10 9
21 20 20 19 18 18 18 18 18 19 20 20 19 19 17 16 15 15 14 13 13 13 12 12 12 11 11 11 11 10 9 8 6 5 4 3 3 2 2 1 0 1 1 2 1 1 2 2 3 3 3 4 4 4 4 4 5 6 7 6 6 5 5 4 4 4 5 5 5 5 4 4 4 5 5 6 6 6 7 8 8 9 9 9 9
21 21 20 20 20 20 20 20 20 20 20 20 20 18 17 17 16 16 15 15 15 15 14 14 12 11 11 10 10 10 9 8 7 6 5 4 4 3 3 2 1 0 1 1 1 1 2 2 3 3 3 3 3 4 4 5 5 6 6 6 6 6 5 4 4 4 4 4 4 4 4 4 4 4 5 5 5 6 7 7 8 8 8 8 8
22 22 22 22 22 22 21 21 21 21 21 21 20 19 19 18 18 18 18 17 17 17 15 13 11 10 10 10 10 10 10 9 8 6 5 4 3 3 3 2 1 1 1 1 1 1 2 2 3 3 3 3 3 4 5 5 6 6 6 6 6 6 5 4 4 4 4 4 4 4 4 3 3 4 4 4 5 7 8 8 8 8 8 8 8
23 23 23 23 23 23 23 22 22 22 21 20 19 19 20 20 20 20 19 19 17 16 14 12 11 11 11 11 11 11 11 10 8 7 5 3 2 2 2 2 2 1 1 1 2 2 2 2 3 4 3 3 3 4 5 6 6 5 5 6 6 6 6 5 5 4 4 4 4 4 4 3 2 3 3 4 6 8 9 9 10 10 10 10 9
24 23 23 23 23 24 24 23 23 23 21 20 20 21 21 21 21 21 20 18 17 16 15 14 14 14 13 13 13 12 11 10 8 6 5 3 2 2 2 2 2 2 1 1 2 2 2 3 4 4 4 3 4 5 7 7 6 6 6 6 7 7 6 6 5 5 5 5 4 4 4 3 3 3 4 5 7 9 9 10 10 10 10 10 10
24 23 23 23 24 25 24 24 23 23 22 21 22 22 22 22 21 20 19 18 18 17 17 17 16 16 15 14 13 12 11 9 8 7 6 4 3 2 2 2 3 3 2 2 3 3 2 3 4 5 5 5 6 7 8 8 7 7 6 7 7 7 7 6 6 6 6 6 5 4 4 4 4 5 6 7 8 10 11 12 12 12 12 11 11
23 23 23 23 24 24 24 24 23 23 23 23 23 23 22 22 21 20 19 18 18 18 18 18 18 17 17 16 14 12 10 9 8 8 7 5 4 3 3 3 3 4 4 3 3 3 3 3 4 5 6 7 8 8 8 8 7 6 6 6 6 7 7 7 7 7 7 7 7 7 5 4 5 6 7 9 10 11 12 13 14 14 14 14 14
23 22 22 21 22 24 24 24 24 23 23 23 23 23 22 21 20 20 19 19 19 19 19 19 19 18 18 16 15 13 11 10 9 9 8 6 5 4 4 3 4 4 5 4 4 4 4 4 4 5 7 8 9 9 8 7 6 6 6 6 6 7 8 8 8 8 8 8 8 9 7 6 6 6 8 9 10 11 11 12 13 14 14 14 14
Wind_Direction
91 94 99 105 107 111 111 114 111 98 98 104 107 107 109 112 114 119 122 119 118 117 113 108 108 110 111 109 108 110 111 111 108 105 103 101 100 104 110 113 112 112 110 106 106 109 110 108 109 110 110 110 108 109 112 114 117 118 119 121 126 133 136 140 145 151 150 145 150 167 171 166 170 166 163 169 171 171 168 165 163 160 157 155 153
95 100 104 105 108 116 119 119 107 93 103 111 110 111 114 118 122 126 125 121 117 112 108 108 110 110 109 108 109 111 111 110 108 106 106 106 107 111 116 118 118 118 118 114 110 110 109 103 102 103 105 109 112 114 117 120 123 121 120 121 126 132 134 146 157 163 164 162 161 166 162 159 165 164 162 162 168 168 165 163 159 156 155 153 150
97 104 105 105 111 120 124 120 104 96 106 110 110 114 120 123 125 126 120 113 109 108 109 109 109 110 111 110 111 111 111 110 109 110 111 112 114 116 119 119 119 118 120 121 117 110 103 98 96 96 97 103 113 120 122 122 122 120 117 117 121 126 134 153 167 160 157 160 151 151 146 145 152 154 155 156 162 164 162 160 157 155 153 150 145
91 100 103 110 114 119 123 113 100 101 107 109 111 116 121 123 122 117 109 106 107 108 108 108 111 114 114 114 115 115 114 113 114 115 116 118 119 121 122 121 120 119 120 122 123 115 106 99 95 96 96 97 106 116 118 120 120 118 117 115 120 127 138 151 161 148 139 137 123 127 134 133 139 145 147 147 156 160 160 158 156 156 152 148 143
89 100 106 114 114 114 115 106 102 108 109 109 111 116 119 117 114 108 105 107 109 109 109 113 116 118 118 120 121 121 120 117 117 116 117 119 122 125 124 124 123 121 120 121 121 115 109 103 99 99 100 97 100 106 110 114 117 118 118 116 118 126 138 139 143 130 108 100 98 110 119 120 127 134 138 139 149 156 157 156 154 155 154 149 144
92 103 111 113 112 110 108 106 108 110 109 109 112 116 115 112 109 107 108 110 110 110 113 118 122 123 124 127 127 126 123 119 117 117 118 120 122 123 122 123 124 124 122 121 116 112 109 105 103 102 103 103 104 106 106 108 112 117 118 116 118 123 131 129 131 117 97 94 97 96 98 109 118 122 128 133 143 151 154 155 153 155 155 150 146
95 108 116 110 107 108 110 112 111 110 109 110 115 117 113 110 109 109 110 111 112 115 119 125 126 126 127 128 129 128 125 121 120 120 120 120 119 118 120 123 125 128 125 122 119 117 116 113 110 105 105 106 109 111 112 112 111 116 121 120 120 125 128 128 128 115 101 98 97 89 93 107 115 116 121 127 138 148 151 153 153 156 157 153 151
104 114 115 106 105 110 113 115 113 111 110 113 119 116 112 109 110 111 111 112 118 122 126 128 126 126 127 128 127 127 125 123 124 124 122 120 122 126 132 133 131 130 127 124 123 124 124 121 113 106 105 104 105 108 115 121 115 113 124 127 126 128 132 133 127 114 102 89 86 81 84 97 109 115 119 124 133 144 148 150 151 156 158 159 161
109 111 107 105 107 111 112 113 113 112 111 115 117 113 109 110 112 112 112 120 127 129 130 128 125 124 122 121 119 118 118 120 122 125 128 131 138 144 147 143 139 135 132 127 124 125 123 119 112 105 98 92 91 92 103 121 124 118 121 127 128 131 137 142 129 119 109 93 88 86 85 92 105 113 117 124 131 138 143 147 149 154 158 163 168
104 102 103 104 103 106 109 112 115 113 112 114 113 112 111 112 114 114 120 130 133 131 129 126 123 120 117 115 113 114 114 115 117 122 128 136 146 153 155 149 143 138 133 127 123 120 116 112 108 105 97 90 86 92 107 122 131 131 128 127 129 135 138 134 120 121 120 106 98 95 93 98 110 115 118 123 129 137 140 143 148 154 159 166 173
103 102 103 101 98 101 108 115 120 115 111 113 115 115 112 114 114 119 130 136 134 130 126 122 121 119 119 119 117 117 116 116 118 121 124 130 138 147 154 149 142 135 128 122 118 115 111 109 111 114 112 109 106 108 119 128 137 143 144 139 136 138 133 115 107 115 117 110 108 102 95 102 117 119 121 123 127 134 138 144 152 159 166 173 180
105 107 103 104 101 101 111 119 120 113 112 116 119 117 114 115 118 128 136 135 131 126 123 121 124 126 127 125 121 117 115 117 119 119 119 122 127 133 141 142 138 131 125 119 117 117 116 117 121 126 126 129 132 127 126 129 142 154 159 157 156 149 126 97 94 101 107 113 122 119 108 118 134 127 126 130 132 134 138 149 157 162 171 180 186
103 101 100 106 104 104 115 118 115 112 117 122 121 118 116 118 125 135 135 130 127 123 123 125 128 130 128 124 119 113 112 112 111 111 112 114 118 122 125 128 130 129 127 121 117 114 111 113 116 121 128 134 138 137 136 134 141 157 170 170 172 166 131 95 86 90 98 109 119 127 126 138 150 141 137 142 142 142 146 155 163 166 172 182 190
94 92 96 103 102 111 116 114 114 117 124 126 122 119 119 125 133 136 131 126 123 121 123 125 128 127 124 121 115 109 105 102 101 102 104 105 108 111 114 117 119 121 121 114 106 99 96 98 102 108 118 129 134 140 145 143 143 151 169 176 177 172 145 114 100 96 91 96 110 121 134 154 158 151 149 155 157 156 159 165 173 175 177 187 196
84 83 96 103 106 115 118 119 119 125 131 128 125 123 125 132 137 134 127 122 119 119 121 123 124 123 122 117 111 105 100 97 97 98 99 99 100 104 107 110 111 111 108 103 97 93 90 89 89 95 104 117 124 129 134 138 139 135 145 164 171 168 160 137 122 115 100 90 98 104 117 153 159 160 162 167 172 171 174 177 182 186 191 196 203
69 74 99 108 114 121 123 127 129 134 137 132 128 126 131 136 137 131 122 118 117 117 118 120 120 120 118 113 108 103 99 97 96 96 96 96 97 100 102 104 104 103 100 98 97 95 92 88 85 86 92 106 115 119 120 122 122 112 110 130 154 161 158 144 127 118 105 93 86 93 105 124 136 155 178 190 198 196 193 192 194 198 203 207 213
56 69 102 112 120 128 132 137 139 143 141 135 130 130 135 137 135 128 119 116 115 115 116 116 116 116 113 109 105 102 100 98 96 94 94 94 95 97 99 99 98 96 95 93 92 90 88 86 84 83 85 91 98 105 108 110 110 102 96 105 127 144 151 154 132 114 99 94 87 90 101 105 110 126 165 201 218 222 218 215 214 214 217 221 224
44 66 106 118 125 131 136 144 146 147 142 134 133 135 137 138 136 125 118 116 115 114 114 114 114 113 110 106 104 102 100 98 96 94 93 93 94 96 96 96 95 93 89 87 86 85 86 86 85 84 84 86 89 93 97 101 103 103 98 99 102 111 136 170 159 154 166 112 100 88 90 94 101 109 120 166 227 237 233 233 237 236 235 236 239
37 64 115 126 130 132 133 144 148 146 140 137 138 138 140 140 134 124 119 117 116 115 115 115 114 111 108 105 103 102 100 99 97 95 93 93 94 94 94 93 92 90 88 86 85 84 84 85 86 86 87 87 88 90 92 95 96 99 97 94 95 99 107 126 192 224 243 237 250 295 48 62 78 103 107 111 245 260 252 246 249 251 251 249 250
31 59 124 134 132 131 129 139 145 143 141 143 143 141 143 141 133 125 122 120 118 118 117 116 114 111 107 105 104 103 101 100 99 97 95 94 94 94 94 93 92 91 90 88 87 86 85 85 86 87 88 89 89 89 89 90 90 90 90 88 89 87 87 100 126 43 310 300 302 294 303 313 296 275 256 261 275 285 286 279 270 267 265 259 257
43 71 130 138 133 130 128 137 144 147 150 149 147 145 145 141 132 127 124 123 122 121 120 117 115 112 109 107 106 104 103 102 101 99 98 97 96 96 95 94 94 93 92 90 89 87 87 86 87 86 86 87 86 87 89 91 91 89 86 85 84 83 85 84 68 54 42 32 3 329 339 357 339 301 275 268 279 289 291 293 291 287 282 276 269
92 113 139 143 136 132 132 139 148 155 157 153 149 147 145 140 133 129 127 126 125 124 122 119 117 114 112 110 107 106 105 104 102 101 100 99 98 97 97 96 95 94 93 92 90 89 88 87 85 84 84 86 87 90 92 92 93 91 87 86 85 84 81 72 64 63 63 63 49 27 22 25 28 13 344 310 292 292 292 295 294 294 295 292 285
166 142 146 149 141 136 136 143 153 159 159 155 151 148 146 141 135 131 130 129 128 127 124 121 118 115 112 109 107 107 107 105 104 104 103 101 101 99 98 97 97 96 93 92 91 90 88 86 84 83 81 86 91 92 91 91 92 93 92 91 89 85 78 69 66 68 70 72 62 48 42 37 37 32 18 359 330 310 304 302 300 296 293 291 288
184 161 155 152 144 139 141 147 153 158 160 156 152 149 146 143 137 134 133 132 131 128 126 123 118 115 112 108 108 109 108 106 104 103 102 100 100 99 96 94 95 95 92 91 89 84 82 81 83 83 81 84 84 83 86 87 88 88 88 87 86 86 83 73 67 68 70 71 67 59 53 49 45 41 34 24 12 359 346 328 315 306 297 293 289
189 172 162 151 146 145 145 149 153 157 160 157 152 149 147 144 139 137 136 135 133 131 128 124 119 117 114 110 110 112 109 107 106 105 104 102 99 97 94 93 94 95 91 85 81 79 76 73 76 77 78 79 75 75 82 83 83 83 84 84 83 84 85 75 66 67 68 67 68 67 62 57 51 47 43 35 29 23 12 358 344 328 311 302 296
191 176 168 154 147 150 150 152 154 156 160 158 153 150 149 145 141 140 139 138 135 133 130 126 121 119 116 113 113 112 110 108 108 108 107 104 101 97 96 96 96 94 86 79 79 77 72 70 72 73 72 71 68 70 77 80 82 84 83 83 81 81 79 72 67 65 61 61 65 68 65 60 52 48 47 42 36 33 24 14 7 357 341 325 313
188 177 170 159 151 154 156 154 154 156 159 158 154 152 150 147 145 143 143 141 138 136 132 127 123 121 118 117 116 114 113 111 109 107 104 101 99 96 95 92 89 89 86 84 84 78 73 72 75 76 71 69 68 68 71 75 79 79 77 77 77 77 75 69 68 67 60 57 57 60 62 61 57 50 49 48 43 41 36 27 17 10 3 354 345
187 177 172 162 156 158 159 157 156 157 159 159 156 154 152 150 148 147 147 144 141 138 134 129 125 123 121 119 120 119 118 118 115 113 110 106 102 98 95 90 85 85 85 81 78 77 77 73 72 74 70 69 71 68 66 67 68 69 69 71 71 72 73 69 66 67 62 55 52 55 59 60 61 58 54 50 45 43 40 34 25 15 10 4 360
184 176 173 165 160 161 163 160 159 160 160 160 158 157 155 153 151 150 150 147 143 139 135 132 128 125 124 123 122 122 122 121 119 117 115 113 109 104 99 95 90 83 80 75 72 75 74 68 69 71 67 68 70 64 61 62 62 62 62 65 66 66 69 68 65 65 62 55 50 50 53 57 59 59 58 54 48 45 41 36 31 21 13 7 3
184 176 172 168 164 161 164 163 162 162 162 162 160 159 158 156 155 154 153 149 146 142 136 133 131 129 128 128 126 125 125 123 121 118 116 115 111 108 102 96 90 84 84 82 75 73 69 63 65 67 63 62 62 58 53 55 62 62 59 59 59 58 59 62 60 59 56 50 45 43 41 45 50 50 50 50 48 45 40 37 35 27 19 13 9
184 176 171 169 167 162 162 164 163 163 163 163 161 160 160 160 159 157 155 153 150 145 140 136 134 134 133 133 132 131 129 126 123 120 118 117 112 108 102 93 83 77 79 75 64 60 60 51 49 59 61 56 52 52 48 48 57 59 55 54 55 54 53 54 53 51 49 42 38 38 32 31 36 39 40 40 40 38 33 34 36 32 23 20 16
185 177 172 170 170 164 160 164 165 164 163 162 162 162 162 163 163 161 158 156 154 149 145 142 140 139 139 139 138 135 133 130 128 126 123 120 113 105 95 84 72 62 57 56 46 44 54 39 24 37 48 50 42 40 44 43 49 53 50 46 47 49 49 48 46 44 41 37 35 34 28 25 25 27 28 29 31 34 31 26 27 27 20 18 16
185 179 173 171 172 165 162 164 164 164 164 163 163 164 165 166 165 164 161 159 158 155 152 150 147 145 145 144 144 142 138 136 135 131 128 123 115 104 92 78 69 56 45 44 29 21 39 19 349 5 25 36 35 34 37 35 39 44 41 36 33 33 38 41 39 36 32 29 30 28 23 21 21 19 19 19 19 25 28 22 19 17 10 9 10
186 182 174 172 171 167 164 163 164 166 166 165 165 166 168 169 167 165 165 163 161 161 160 157 154 151 151 151 149 148 145 143 140 133 128 123 114 105 93 76 62 46 32 29 15 1 1 346 319 320 349 1 21 32 28 23 21 27 27 21 18 16 22 29 28 24 20 18 20 21 14 9 14 16 14 16 15 15 17 16 15 14 8 2 2
187 184 177 173 171 169 167 163 164 167 168 168 167 169 171 172 171 168 167 168 166 166 167 164 162 159 158 158 155 155 152 147 141 133 126 119 112 105 92 71 48 32 18 8 3 355 340 325 309 308 321 332 354 18 21 13 6 10 7 359 358 1 8 14 16 11 4 4 7 12 7 356 1 8 9 15 15 13 10 7 6 9 9 5 2
188 185 179 175 172 172 171 166 166 168 169 169 169 170 173 174 173 172 170 171 171 170 172 170 169 168 164 162 160 159 155 149 142 134 128 116 106 93 70 47 33 25 14 5 356 347 329 316 309 314 321 325 340 355 10 25 13 2 351 344 342 345 354 358 4 3 354 352 355 1 1 350 350 358 3 8 11 13 11 5 0 359 2 4 7
186 183 181 177 174 175 175 171 169 169 170 169 170 172 173 175 175 175 174 174 176 175 176 177 177 175 170 165 162 161 156 150 144 138 130 114 92 63 43 26 30 29 16 8 354 342 343 327 314 320 326 326 336 343 355 16 20 2 345 337 333 337 346 347 352 356 348 346 347 348 351 346 344 350 358 1 2 7 11 9 4 357 355 355 360
183 182 182 178 175 177 177 175 171 170 170 169 171 173 174 176 177 177 178 178 181 181 181 184 184 181 177 173 167 165 160 153 149 141 126 104 76 46 25 17 30 32 21 13 4 355 6 10 346 345 346 348 350 348 354 7 9 4 352 339 333 337 340 338 344 350 344 343 341 340 345 346 342 344 350 355 356 359 6 10 7 1 355 350 350
182 182 182 178 174 177 178 176 172 169 170 171 172 175 176 179 180 181 182 183 186 187 188 190 190 189 185 182 178 170 165 158 151 138 117 94 71 45 30 30 35 35 28 22 21 26 42 57 54 33 27 23 15 10 13 19 13 7 6 355 343 340 337 334 341 348 344 340 339 339 343 345 344 342 343 350 352 353 357 2 3 1 357 351 346
182 183 182 178 173 175 179 175 172 170 170 171 173 177 179 181 183 185 186 187 190 192 195 199 199 200 197 190 185 175 169 162 151 134 108 84 64 51 41 44 47 42 39 35 36 46 57 66 70 64 56 48 44 45 40 36 30 20 18 11 355 349 348 343 345 350 341 336 339 340 341 344 345 341 341 348 350 350 351 353 357 359 357 353 344
183 185 183 180 175 175 180 178 174 173 172 172 175 179 182 184 185 188 189 189 191 194 200 207 210 212 209 201 191 182 175 167 156 138 110 83 59 52 51 58 63 52 46 44 44 53 60 64 65 61 59 57 57 58 48 38 29 17 11 4 355 353 352 347 345 345 334 333 339 340 346 349 343 340 344 349 350 350 351 350 353 357 359 356 346
185 188 187 183 179 177 181 181 178 177 176 177 179 182 184 186 188 189 190 190 191 195 202 209 214 216 214 207 198 189 183 177 170 159 144 121 88 65 72 79 73 56 47 47 47 53 56 54 53 48 44 46 53 57 50 37 23 8 2 359 353 352 348 340 335 333 330 333 336 338 353 354 341 346 352 352 352 351 351 352 354 357 359 358 353
189 190 190 186 182 181 183 184 184 183 181 182 183 185 187 188 191 192 192 193 193 198 202 207 213 214 212 207 200 194 189 185 183 179 175 171 164 169 178 155 67 53 47 48 41 37 40 36 36 33 27 35 49 56 52 40 25 14 10 8 7 10 8 354 345 344 342 341 341 342 354 352 342 353 360 356 356 354 353 356 357 359 0 359 1
191 192 191 190 186 185 187 187 188 188 186 187 186 186 188 189 192 194 195 195 195 199 203 207 211 210 206 203 198 194 190 187 187 186 186 185 181 182 192 202 56 39 41 46 23 343 359 6 21 32 26 26 35 39 40 33 27 24 22 22 26 32 34 26 15 12 6 1 0 354 355 0 350 356 9 4 1 2 2 2 1 1 360 359 1
191 192 192 193 191 190 191 192 192 191 189 190 188 186 188 189 192 196 197 196 197 200 204 207 208 205 202 200 195 191 191 190 190 191 188 186 184 184 195 207 231 347 29 32 336 307 338 345 7 28 18 7 11 19 27 28 25 25 24 25 28 31 33 33 28 23 15 8 10 358 348 358 349 351 13 10 3 10 8 4 1 359 358 358 358
192 193 193 194 196 195 195 197 196 193 192 191 189 188 189 192 195 197 197 197 199 202 203 205 204 201 199 196 194 193 195 196 196 196 194 189 189 190 198 208 229 278 7 7 318 303 323 334 352 6 358 354 4 14 18 20 15 13 16 19 21 20 19 21 18 14 6 355 354 344 333 342 335 333 353 352 354 4 1 355 355 353 353 354 354
195 195 196 197 199 199 198 200 198 195 193 190 188 190 191 194 198 199 200 199 200 201 202 204 202 199 197 196 196 197 200 201 201 203 202 198 203 207 211 220 236 258 311 337 307 291 307 329 343 348 346 350 3 7 6 6 3 3 10 17 20 17 14 16 14 8 4 351 340 328 318 320 313 308 319 328 340 350 349 348 349 348 347 346 347
198 197 198 200 201 201 201 201 200 197 193 188 188 191 193 196 200 200 200 199 199 199 199 202 202 200 200 200 201 203 205 206 206 210 215 216 232 248 246 241 245 256 272 306 298 283 296 325 337 337 334 338 350 357 358 358 360 6 14 20 23 22 20 19 17 13 9 360 345 325 310 308 304 298 306 319 329 335 339 342 344 343 342 339 338
200 201 201 203 202 201 202 202 201 198 192 189 189 192 195 198 201 201 200 199 197 198 199 201 202 202 203 205 207 209 210 210 209 215 223 226 238 264 276 267 261 262 263 281 286 276 283 313 328 328 323 326 341 352 356 356 1 10 18 25 26 28 30 27 20 13 7 2 351 340 330 316 310 310 311 318 323 328 334 339 342 344 342 339 335
201 204 205 206 204 201 201 201 199 198 193 191 192 194 197 199 200 201 201 199 198 200 201 203 204 205 207 209 211 214 216 216 214 218 227 231 240 258 273 275 267 262 260 264 271 266 270 290 309 316 315 321 336 346 352 356 2 12 21 27 28 28 32 32 26 16 9 3 350 346 353 335 316 314 313 316 323 328 332 336 340 345 344 342 339
203 207 208 209 207 203 202 200 198 198 195 194 195 196 198 200 202 203 201 200 202 203 204 205 207 208 211 213 215 218 222 223 221 223 229 232 238 252 265 269 260 253 253 257 261 260 262 274 292 307 311 319 332 339 345 355 4 10 15 21 25 26 27 27 26 22 16 10 358 349 352 344 329 324 319 320 325 329 331 332 334 338 340 340 340
Height
5895 5896 5896 5896 5896 5896 5897 5898 5898 5898 5898 5898 5898 5898 5898 5898 5899 5899 5900 5900 5900 5901 5901 5900 5900 5900 5900 5900 5900 5900 5901 5901 5901 5901 5901 5901 5901 5901 5901 5901 5901 5901 5902 5902 5901 5902 5902 5902 5902 5902 5902 5902 5902 5902 5903 5903 5904 5904 5904 5904 5904 5905 5905 5905 5905 5905 5905 5905 5905 5905 5905 5906 5906 5907 5907 5907 5908 5909 5910 5910 5911 5912 5912 5913 5913
5896 5897 5897 5897 5897 5897 5898 5899 5899 5899 5899 5899 5899 5899 5899 5900 5900 5900 5901 5901 5901 5901 5901 5901 5901 5901 5901 5901 5901 5901 5901 5902 5902 5902 5901 5902 5902 5902 5902 5902 5902 5902 5902 5902 5902 5903 5902 5902 5902 5902 5902 5903 5903 5904 5904 5904 5904 5905 5905 5905 5905 5906 5906 5905 5905 5905 5905 5905 5905 5905 5906 5906 5907 5907 5907 5908 5908 5909 5910 5910 5911 5912 5913 5913 5913
5897 5897 5897 5897 5898 5898 5899 5900 5900 5900 5900 5900 5900 5900 5900 5901 5901 5901 5902 5902 5902 5902 5902 5902 5902 5902 5902 5902 5902 5902 5902 5902 5902 5902 5902 5902 5902 5902 5902 5902 5902 5903 5903 5903 5903 5903 5903 5903 5903 5903 5903 5904 5904 5904 5904 5905 5905 5905 5906 5906 5906 5906 5906 5905 5905 5905 5905 5905 5906 5906 5906 5906 5907 5907 5908 5908 5909 5909 5910 5911 5911 5912 5913 5913 5914
5897 5897 5898 5898 5899 5900 5900 5900 5900 5900 5900 5900 5901 5901 5902 5902 5902 5902 5902 5902 5903 5903 5903 5903 5903 5903 5903 5903 5903 5903 5903 5903 5903 5903 5903 5903 5903 5903 5903 5903 5903 5903 5904 5904 5904 5904 5904 5904 5904 5904 5905 5905 5906 5905 5905 5906 5906 5906 5906 5906 5907 5907 5906 5906 5905 5905 5906 5907 5907 5907 5907 5907 5907 5908 5908 5909 5909 5910 5910 5911 5911 5912 5913 5913 5914
5898 5899 5899 5900 5900 5901 5901 5901 5900 5900 5901 5901 5902 5902 5902 5902 5902 5903 5903 5903 5903 5904 5904 5904 5904 5904 5904 5904 5904 5904 5903 5903 5903 5903 5903 5904 5904 5904 5904 5904 5904 5904 5904 5904 5904 5905 5905 5905 5906 5906 5906 5906 5907 5907 5907 5907 5907 5907 5907 5907 5907 5907 5906 5906 5905 5906 5908 5908 5908 5908 5908 5908 5908 5908 5909 5909 5910 5910 5911 5911 5912 5912 5912 5913 5914
5900 5900 5900 5901 5901 5901 5901 5901 5901 5901 5902 5902 5903 5903 5903 5903 5903 5903 5903 5904 5904 5904 5905 5905 5905 5905 5905 5905 5905 5904 5904 5904 5904 5904 5904 5904 5904 5904 5904 5904 5905 5905 5905 5905 5905 5905 5906 5906 5906 5906 5907 5907 5907 5907 5907 5907 5907 5907 5907 5907 5907 5907 5907 5907 5907 5907 5909 5909 5908 5908 5909 5908 5908 5909 5910 5910 5910 5911 5911 5912 5912 5913 5913 5913 5914
5900 5900 5901 5901 5902 5902 5902 5902 5902 5902 5903 5903 5904 5904 5904 5904 5904 5904 5904 5904 5905 5905 5905 5906 5906 5906 5906 5906 5905 5905 5905 5905 5904 5904 5904 5905 5905 5904 5904 5905 5905 5905 5906 5906 5906 5906 5907 5907 5907 5907 5907 5908 5908 5908 5908 5908 5908 5908 5908 5908 5908 5907 5907 5907 5908 5909 5910 5910 5909 5910 5910 5910 5909 5910 5910 5911 5911 5911 5912 5912 5913 5913 5913 5914 5914
5901 5901 5902 5902 5902 5903 5903 5903 5903 5903 5904 5904 5904 5904 5904 5904 5905 5905 5905 5905 5906 5906 5906 5907 5907 5907 5906 5906 5906 5906 5906 5905 5905 5905 5905 5905 5905 5905 5905 5906 5906 5906 5907 5907 5907 5907 5907 5907 5907 5907 5907 5908 5908 5908 5908 5908 5908 5909 5909 5908 5908 5908 5908 5908 5909 5910 5911 5911 5911 5912 5912 5912 5910 5910 5911 5911 5912 5912 5912 5913 5913 5914 5914 5914 5915
5901 5902 5902 5903 5904 5904 5904 5904 5904 5904 5905 5905 5905 5905 5905 5905 5905 5905 5906 5906 5907 5907 5907 5907 5907 5907 5907 5907 5906 5906 5906 5906 5906 5906 5906 5906 5906 5906 5906 5907 5907 5907 5907 5908 5908 5908 5908 5908 5908 5908 5908 5908 5908 5908 5909 5909 5909 5910 5909 5909 5909 5908 5908 5909 5911 5912 5912 5912 5913 5913 5913 5913 5912 5911 5911 5912 5912 5913 5913 5914 5914 5914 5915 5915 5915
5902 5902 5903 5904 5904 5904 5904 5904 5904 5905 5905 5905 5905 5905 5906 5906 5906 5906 5907 5908 5908 5908 5908 5908 5908 5907 5907 5907 5907 5907 5907 5907 5907 5907 5907 5907 5907 5907 5907 5907 5908 5908 5908 5908 5908 5909 5909 5908 5909 5909 5909 5909 5909 5909 5910 5910 5910 5910 5910 5910 5909 5908 5909 5910 5912 5913 5913 5914 5914 5914 5914 5914 5913 5912 5912 5913 5913 5913 5914 5915 5915 5915 5915 5916 5916
5902 5904 5904 5905 5905 5905 5905 5904 5905 5905 5906 5905 5906 5906 5907 5907 5907 5907 5908 5909 5909 5909 5909 5909 5908 5908 5908 5908 5908 5908 5908 5907 5907 5907 5908 5908 5908 5908 5908 5908 5908 5909 5909 5909 5909 5909 5909 5909 5909 5910 5910 5911 5911 5911 5911 5911 5911 5911 5911 5911 5910 5909 5910 5911 5913 5914 5914 5914 5915 5915 5915 5914 5914 5913 5913 5913 5914 5914 5915 5915 5916 5916 5916 5916 5917
5903 5905 5905 5905 5906 5905 5905 5905 5906 5906 5906 5906 5907 5907 5907 5907 5908 5909 5910 5910 5910 5910 5910 5909 5909 5909 5908 5908 5908 5908 5908 5908 5908 5908 5908 5908 5908 5908 5908 5909 5909 5910 5910 5910 5910 5911 5910 5910 5910 5911 5911 5912 5912 5912 5912 5912 5912 5912 5912 5912 5911 5910 5911 5912 5913 5914 5914 5913 5915 5915 5915 5915 5914 5914 5914 5914 5915 5915 5916 5916 5916 5917 5917 5917 5918
5904 5905 5905 5906 5906 5906 5906 5906 5906 5906 5906 5907 5907 5908 5908 5908 5909 5910 5911 5911 5911 5910 5910 5910 5909 5909 5909 5909 5909 5909 5909 5909 5909 5909 5909 5909 5909 5909 5909 5910 5910 5911 5911 5911 5912 5912 5912 5911 5911 5911 5912 5912 5912 5913 5913 5913 5913 5913 5913 5913 5913 5912 5912 5913 5914 5914 5913 5913 5915 5915 5915 5915 5915 5915 5915 5915 5915 5916 5916 5917 5917 5917 5918 5918 5918
5905 5906 5906 5906 5906 5906 5906 5906 5906 5907 5907 5907 5908 5908 5908 5909 5910 5911 5912 5911 5911 5911 5911 5910 5910 5910 5910 5910 5910 5910 5910 5910 5910 5910 5910 5910 5910 5910 5911 5911 5911 5912 5912 5913 5913 5913 5913 5912 5912 5912 5912 5912 5913 5913 5914 5914 5914 5914 5914 5914 5914 5913 5913 5914 5914 5914 5914 5914 5915 5916 5916 5916 5916 5916 5916 5916 5916 5916 5917 5917 5917 5918 5918 5919 5919
5906 5906 5906 5906 5906 5906 5906 5906 5907 5907 5908 5908 5908 5909 5909 5910 5911 5912 5912 5912 5911 5911 5911 5911 5911 5912 5911 5911 5911 5911 5911 5911 5911 5911 5911 5911 5911 5912 5912 5912 5913 5913 5914 5914 5914 5914 5913 5913 5913 5913 5913 5913 5913 5914 5914 5915 5915 5915 5915 5915 5915 5915 5914 5915 5915 5916 5915 5915 5916 5916 5916 5917 5917 5917 5917 5917 5917 5917 5917 5917 5918 5918 5919 5919 5919
5906 5906 5907 5907 5907 5907 5906 5907 5908 5908 5908 5909 5909 5909 5910 5911 5912 5912 5912 5912 5912 5912 5912 5912 5913 5913 5913 5913 5912 5912 5912 5912 5912 5912 5912 5912 5913 5913 5914 5914 5914 5915 5915 5915 5915 5915 5914 5914 5914 5913 5913 5913 5914 5914 5915 5915 5916 5916 5916 5916 5916 5916 5916 5916 5916 5917 5917 5917 5917 5917 5917 5917 5917 5917 5917 5917 5917 5917 5917 5918 5918 5918 5919 5919 5919
5906 5906 5907 5907 5907 5907 5907 5908 5908 5909 5909 5909 5910 5910 5911 5912 5912 5912 5912 5912 5912 5913 5913 5914 5914 5914 5914 5914 5914 5914 5914 5914 5914 5914 5914 5914 5915 5915 5915 5916 5916 5916 5916 5916 5916 5916 5915 5915 5915 5915 5914 5914 5914 5915 5915 5916 5916 5917 5917 5917 5917 5917 5917 5917 5917 5918 5918 5919 5918 5918 5919 5918 5917 5917 5917 5917 5917 5918 5918 5918 5918 5919 5919 5919 5919
5907 5907 5907 5907 5907 5908 5908 5909 5909 5909 5910 5910 5910 5911 5912 5912 5913 5913 5913 5913 5913 5914 5914 5915 5915 5915 5915 5915 5915 5915 5915 5915 5915 5915 5916 5916 5916 5917 5917 5917 5918 5918 5918 5918 5918 5918 5917 5917 5916 5916 5916 5916 5916 5916 5916 5916 5917 5917 5918 5918 5918 5918 5918 5918 5917 5918 5918 5919 5919 5919 5919 5919 5919 5918 5918 5918 5918 5918 5918 5919 5919 5919 5919 5919 5919
5907 5907 5907 5907 5908 5908 5909 5909 5910 5910 5910 5910 5911 5912 5912 5913 5913 5913 5913 5914 5914 5915 5916 5916 5916 5917 5916 5916 5916 5916 5917 5917 5917 5917 5918 5918 5919 5919 5919 5919 5920 5920 5920 5920 5920 5920 5919 5919 5918 5918 5917 5917 5917 5917 5917 5917 5918 5918 5918 5919 5919 5919 5919 5919 5918 5918 5918 5919 5919 5919 5919 5919 5919 5919 5919 5919 5919 5919 5919 5919 5919 5919 5919 5919 5919
5907 5907 5908 5908 5908 5909 5909 5909 5910 5910 5910 5911 5912 5913 5913 5914 5914 5914 5914 5915 5916 5916 5917 5917 5917 5917 5917 5917 5918 5918 5918 5919 5919 5919 5920 5920 5921 5921 5921 5921 5922 5922 5922 5922 5922 5922 5921 5920 5920 5919 5919 5919 5919 5919 5918 5918 5919 5919 5919 5920 5920 5920 5920 5920 5919 5919 5919 5919 5919 5919 5920 5920 5920 5920 5919 5919 5919 5919 5919 5919 5919 5919 5919 5919 5919
5907 5907 5908 5908 5908 5909 5909 5909 5910 5910 5911 5912 5913 5913 5914 5914 5915 5915 5915 5916 5917 5918 5918 5918 5918 5918 5918 5919 5919 5920 5920 5921 5921 5921 5921 5922 5922 5923 5923 5923 5923 5923 5923 5923 5923 5923 5923 5922 5921 5921 5921 5921 5921 5921 5920 5920 5920 5920 5920 5921 5921 5922 5922 5921 5920 5920 5920 5920 5920 5920 5920 5920 5920 5920 5920 5920 5920 5920 5920 5920 5920 5920 5920 5920 5920
5908 5908 5908 5908 5909 5909 5910 5910 5911 5911 5912 5913 5914 5914 5915 5915 5915 5916 5916 5917 5918 5919 5919 5919 5919 5919 5919 5920 5920 5921 5922 5922 5923 5923 5923 5924 5924 5924 5924 5924 5924 5924 5924 5924 5924 5924 5924 5923 5923 5923 5923 5922 5922 5922 5921 5921 5921 5921 5921 5922 5922 5923 5923 5922 5921 5921 5921 5921 5921 5921 5921 5921 5921 5921 5921 5920 5920 5920 5920 5920 5920 5920 5920 5920 5920
5908 5908 5909 5909 5909 5910 5910 5911 5912 5912 5913 5914 5914 5915 5915 5916 5916 5917 5917 5918 5919 5920 5920 5920 5920 5920 5921 5921 5921 5922 5924 5924 5924 5924 5924 5925 5925 5925 5926 5926 5926 5925 5925 5925 5925 5925 5925 5925 5925 5925 5925 5924 5924 5923 5922 5922 5922 5922 5922 5923 5923 5924 5923 5922 5922 5923 5923 5922 5922 5922 5922 5922 5922 5922 5921 5921 5921 5921 5921 5921 5920 5920 5920 5920 5920
5908 5908 5909 5909 5910 5910 5911 5912 5912 5913 5914 5914 5915 5915 5916 5916 5917 5918 5918 5919 5920 5921 5921 5921 5921 5922 5922 5922 5923 5924 5925 5925 5925 5925 5926 5926 5926 5926 5927 5927 5927 5927 5926 5926 5927 5927 5927 5927 5926 5926 5927 5926 5925 5924 5923 5923 5923 5923 5923 5924 5924 5924 5924 5923 5923 5924 5924 5924 5923 5924 5924 5923 5923 5923 5922 5922 5922 5921 5921 5921 5921 5921 5921 5920 5920
5908 5908 5909 5910 5910 5911 5911 5912 5913 5913 5914 5915 5915 5916 5916 5917 5917 5918 5920 5920 5921 5922 5922 5922 5923 5923 5924 5924 5925 5926 5926 5926 5927 5927 5927 5927 5928 5928 5928 5928 5928 5928 5928 5929 5929 5929 5929 5929 5928 5927 5927 5927 5926 5925 5924 5924 5924 5924 5924 5925 5925 5926 5926 5925 5925 5925 5926 5925 5925 5925 5924 5924 5924 5924 5923 5923 5923 5923 5922 5922 5921 5921 5921 5921 5921
5907 5908 5909 5910 5910 5911 5911 5912 5913 5913 5914 5915 5916 5916 5917 5917 5918 5919 5921 5921 5922 5923 5923 5924 5924 5925 5925 5926 5927 5927 5927 5928 5928 5929 5929 5929 5929 5929 5929 5929 5929 5929 5930 5931 5930 5929 5929 5930 5930 5929 5928 5927 5927 5927 5926 5926 5926 5926 5926 5926 5926 5927 5927 5927 5927 5927 5927 5927 5926 5925 5925 5925 5925 5925 5925 5924 5924 5923 5923 5923 5922 5922 5921 5921 5921
5907 5908 5909 5909 5910 5911 5911 5912 5913 5914 5915 5915 5916 5917 5917 5918 5919 5920 5921 5922 5923 5924 5924 5925 5925 5926 5927 5927 5928 5928 5929 5929 5929 5930 5930 5930 5930 5931 5930 5930 5930 5931 5931 5932 5931 5930 5931 5931 5931 5930 5929 5928 5928 5928 5928 5928 5928 5928 5927 5927 5927 5927 5928 5928 5928 5928 5928 5928 5927 5926 5925 5925 5926 5926 5925 5925 5925 5924 5924 5923 5923 5922 5922 5922 5921
5907 5908 5908 5909 5910 5911 5912 5912 5913 5914 5915 5916 5917 5917 5918 5919 5920 5921 5922 5923 5924 5925 5926 5926 5927 5927 5928 5929 5929 5930 5930 5930 5931 5931 5931 5932 5932 5932 5931 5931 5931 5932 5932 5932 5931 5931 5932 5932 5931 5931 5931 5930 5930 5930 5930 5930 5930 5929 5929 5929 5929 5928 5928 5929 5929 5928 5928 5928 5928 5927 5926 5926 5926 5926 5926 5926 5925 5925 5924 5924 5923 5923 5922 5922 5921
5906 5907 5908 5909 5910 5911 5912 5913 5914 5915 5916 5916 5917 5918 5919 5920 5921 5922 5923 5924 5925 5926 5927 5928 5928 5929 5929 5930 5930 5931 5931 5932 5932 5932 5933 5933 5933 5933 5933 5932 5932 5933 5934 5933 5932 5932 5932 5932 5931 5931 5932 5932 5931 5932 5932 5932 5932 5931 5931 5930 5930 5929 5929 5929 5929 5929 5929 5929 5928 5928 5928 5927 5927 5927 5926 5926 5926 5925 5925 5924 5924 5923 5923 5922 5921
5906 5907 5908 5909 5910 5911 5912 5913 5914 5915 5916 5917 5918 5919 5920 5921 5922 5923 5924 5925 5926 5927 5928 5929 5929 5930 5931 5931 5932 5932 5932 5933 5933 5933 5934 5934 5934 5934 5934 5933 5933 5934 5934 5934 5934 5933 5932 5932 5932 5932 5933 5933 5932 5933 5933 5933 5933 5932 5932 5931 5931 5931 5930 5930 5930 5930 5930 5930 5930 5929 5929 5928 5927 5927 5927 5927 5926 5926 5925 5925 5924 5924 5923 5922 5922
5906 5907 5907 5909 5910 5911 5912 5913 5915 5916 5917 5918 5919 5920 5921 5922 5923 5924 5925 5926 5927 5928 5929 5929 5930 5931 5932 5932 5933 5933 5933 5934 5934 5934 5935 5935 5935 5935 5935 5934 5934 5934 5935 5935 5934 5934 5934 5934 5934 5933 5933 5933 5933 5934 5934 5934 5933 5933 5933 5933 5932 5932 5932 5931 5931 5931 5931 5931 5931 5930 5930 5929 5928 5928 5928 5927 5927 5926 5926 5926 5925 5924 5923 5923 5922
5905 5906 5907 5908 5910 5911 5912 5914 5915 5916 5917 5919 5920 5921 5922 5923 5924 5925 5926 5927 5928 5929 5929 5930 5931 5932 5932 5933 5933 5934 5934 5935 5935 5935 5936 5936 5936 5936 5936 5935 5935 5935 5935 5935 5935 5934 5935 5935 5935 5934 5934 5934 5934 5934 5935 5935 5934 5934 5934 5934 5933 5933 5933 5932 5932 5932 5932 5932 5932 5931 5931 5930 5929 5929 5928 5928 5928 5928 5927 5926 5926 5925 5924 5923 5922
5905 5906 5907 5908 5910 5911 5912 5914 5915 5917 5918 5919 5920 5921 5923 5924 5925 5926 5927 5928 5928 5929 5930 5931 5932 5932 5933 5934 5934 5935 5935 5936 5936 5936 5937 5937 5937 5937 5936 5936 5936 5936 5936 5935 5935 5935 5935 5935 5936 5935 5935 5935 5935 5935 5936 5936 5936 5935 5935 5934 5934 5934 5933 5933 5933 5933 5932 5932 5932 5932 5931 5931 5931 5930 5929 5928 5928 5928 5928 5927 5926 5925 5925 5924 5923
5905 5906 5907 5909 5910 5911 5913 5914 5916 5917 5918 5920 5921 5922 5923 5924 5926 5927 5927 5928 5929 5930 5931 5932 5932 5933 5934 5934 5935 5935 5936 5936 5937 5937 5937 5938 5938 5938 5937 5937 5937 5937 5937 5936 5936 5935 5936 5936 5936 5936 5936 5936 5936 5936 5936 5936 5936 5936 5935 5935 5935 5935 5934 5934 5933 5933 5933 5933 5932 5932 5931 5931 5931 5931 5930 5930 5929 5928 5928 5927 5927 5926 5925 5924 5923
5905 5906 5907 5909 5910 5911 5912 5914 5916 5917 5919 5920 5921 5922 5924 5925 5926 5927 5928 5929 5930 5931 5931 5932 5933 5934 5934 5935 5936 5936 5937 5937 5937 5938 5938 5938 5938 5938 5938 5938 5938 5938 5938 5937 5937 5936 5936 5936 5936 5936 5936 5936 5936 5937 5937 5937 5937 5936 5936 5936 5935 5935 5935 5934 5934 5934 5933 5933 5933 5932 5932 5931 5931 5931 5931 5931 5930 5929 5928 5927 5927 5926 5926 5925 5924
5905 5906 5907 5909 5910 5911 5913 5914 5915 5917 5918 5920 5921 5923 5924 5926 5927 5928 5929 5929 5930 5931 5932 5933 5933 5934 5935 5936 5936 5937 5938 5938 5938 5938 5939 5939 5939 5939 5939 5939 5939 5938 5938 5938 5937 5937 5937 5937 5936 5936 5936 5936 5936 5937 5937 5937 5937 5936 5936 5936 5936 5935 5935 5935 5934 5934 5934 5933 5933 5933 5932 5931 5931 5931 5931 5931 5930 5930 5929 5928 5927 5926 5925 5925 5924
5905 5906 5907 5909 5910 5912 5913 5914 5915 5917 5918 5920 5921 5923 5925 5926 5927 5928 5929 5930 5931 5932 5932 5933 5934 5935 5935 5936 5937 5938 5938 5938 5939 5939 5939 5939 5939 5939 5940 5940 5939 5939 5939 5938 5938 5937 5937 5937 5936 5936 5937 5936 5936 5937 5937 5937 5936 5936 5936 5936 5936 5936 5935 5935 5935 5934 5934 5934 5933 5933 5932 5931 5931 5931 5931 5930 5930 5930 5929 5929 5928 5926 5925 5925 5924
5905 5906 5907 5909 5910 5912 5913 5914 5915 5917 5918 5920 5921 5923 5925 5926 5927 5928 5929 5930 5931 5932 5933 5934 5934 5935 5936 5937 5937 5938 5939 5939 5939 5940 5940 5940 5940 5939 5940 5939 5939 5939 5939 5939 5938 5938 5937 5937 5937 5937 5937 5937 5937 5937 5937 5936 5936 5936 5936 5936 5936 5936 5935 5935 5935 5934 5934 5934 5933 5933 5932 5932 5931 5930 5930 5930 5930 5929 5929 5929 5928 5927 5926 5925 5924
5905 5906 5908 5909 5910 5912 5913 5914 5916 5917 5918 5920 5922 5923 5925 5926 5928 5929 5930 5931 5932 5932 5933 5934 5935 5935 5936 5937 5938 5939 5939 5940 5940 5940 5940 5940 5940 5940 5939 5939 5939 5939 5939 5939 5939 5938 5938 5938 5938 5938 5937 5937 5937 5937 5937 5936 5936 5936 5936 5936 5936 5936 5936 5935 5935 5934 5934 5934 5933 5933 5932 5932 5931 5930 5930 5930 5929 5928 5928 5929 5928 5927 5926 5925 5924
5904 5906 5908 5909 5910 5912 5913 5915 5916 5917 5918 5920 5921 5923 5925 5926 5928 5929 5930 5931 5932 5933 5934 5934 5935 5936 5937 5937 5938 5939 5940 5940 5940 5941 5941 5941 5941 5940 5940 5940 5940 5940 5940 5940 5939 5939 5939 5939 5938 5938 5938 5938 5938 5938 5937 5937 5937 5936 5936 5936 5936 5936 5936 5935 5935 5934 5934 5934 5933 5933 5932 5932 5931 5931 5930 5929 5929 5928 5928 5928 5928 5927 5926 5925 5924
5904 5906 5907 5909 5910 5911 5913 5914 5915 5917 5918 5919 5921 5923 5924 5926 5927 5928 5930 5931 5932 5933 5934 5935 5935 5936 5937 5938 5938 5939 5940 5940 5941 5941 5941 5941 5941 5941 5941 5941 5941 5941 5940 5940 5940 5940 5940 5940 5939 5939 5939 5939 5939 5938 5938 5937 5937 5936 5936 5936 5936 5936 5936 5935 5935 5934 5934 5933 5933 5933 5933 5932 5932 5931 5930 5929 5929 5928 5927 5927 5927 5927 5926 5925 5924
5904 5905 5907 5908 5909 5911 5913 5914 5915 5916 5917 5919 5921 5922 5924 5926 5927 5928 5930 5931 5932 5933 5934 5935 5935 5936 5937 5938 5939 5940 5940 5941 5941 5941 5941 5941 5941 5941 5941 5941 5941 5941 5941 5941 5941 5941 5941 5941 5940 5940 5940 5940 5939 5938 5938 5938 5937 5937 5937 5936 5936 5936 5936 5935 5935 5934 5934 5933 5933 5932 5932 5932 5932 5931 5930 5930 5929 5928 5927 5926 5926 5925 5925 5924 5924
5903 5905 5906 5908 5909 5911 5912 5914 5915 5916 5917 5918 5920 5922 5924 5925 5927 5928 5929 5931 5932 5933 5934 5934 5935 5936 5937 5938 5939 5940 5940 5941 5941 5942 5942 5942 5941 5941 5941 5941 5941 5941 5941 5941 5941 5941 5941 5941 5941 5940 5940 5940 5939 5939 5939 5938 5938 5937 5937 5936 5936 5936 5936 5935 5935 5934 5934 5933 5933 5932 5932 5932 5932 5931 5931 5930 5929 5928 5928 5927 5925 5924 5924 5923 5923
5902 5904 5906 5908 5909 5910 5912 5913 5914 5915 5916 5918 5920 5922 5923 5925 5927 5928 5929 5930 5931 5932 5933 5934 5934 5935 5936 5937 5939 5940 5941 5941 5942 5942 5942 5942 5942 5942 5941 5941 5941 5941 5941 5942 5942 5942 5941 5941 5941 5940 5940 5940 5939 5939 5939 5939 5939 5938 5937 5937 5937 5936 5936 5936 5935 5934 5934 5933 5933 5933 5932 5932 5932 5931 5931 5930 5930 5929 5928 5927 5926 5925 5924 5923 5922
5901 5904 5905 5907 5908 5910 5911 5912 5913 5914 5916 5917 5919 5921 5923 5924 5925 5927 5928 5929 5930 5931 5932 5933 5933 5935 5936 5937 5939 5940 5941 5942 5942 5943 5943 5943 5942 5942 5942 5942 5941 5941 5942 5942 5942 5942 5942 5942 5942 5941 5940 5940 5939 5939 5939 5939 5939 5938 5938 5938 5937 5937 5936 5936 5935 5934 5934 5933 5933 5933 5932 5932 5932 5931 5931 5930 5930 5929 5928 5927 5926 5925 5924 5923 5923
5901 5903 5904 5906 5907 5909 5910 5912 5913 5914 5915 5917 5919 5921 5922 5923 5924 5925 5927 5928 5928 5929 5931 5932 5933 5934 5936 5937 5939 5940 5941 5942 5942 5943 5943 5943 5942 5942 5942 5942 5942 5942 5942 5942 5942 5942 5942 5942 5942 5941 5941 5940 5940 5939 5939 5939 5939 5939 5938 5938 5937 5937 5936 5936 5935 5935 5934 5934 5933 5933 5932 5932 5932 5931 5931 5930 5930 5929 5928 5927 5927 5925 5925 5924 5923
5900 5902 5903 5905 5906 5908 5910 5911 5913 5914 5915 5917 5918 5920 5921 5922 5923 5924 5925 5926 5928 5929 5930 5932 5933 5934 5935 5936 5938 5939 5940 5941 5942 5942 5942 5942 5942 5942 5942 5942 5942 5942 5942 5942 5942 5942 5941 5942 5941 5941 5941 5940 5940 5940 5939 5939 5939 5939 5938 5938 5938 5937 5936 5936 5935 5935 5934 5934 5933 5933 5932 5932 5931 5931 5930 5929 5929 5928 5928 5927 5926 5926 5925 5924 5923
5899 5901 5903 5904 5906 5907 5909 5910 5912 5913 5914 5916 5917 5919 5920 5921 5922 5923 5925 5926 5927 5928 5930 5931 5932 5933 5934 5936 5937 5938 5939 5940 5941 5942 5942 5942 5942 5942 5942 5942 5942 5942 5942 5942 5942 5942 5941 5941 5941 5941 5941 5941 5940 5940 5940 5939 5939 5939 5938 5938 5938 5937 5937 5936 5935 5935 5934 5934 5933 5933 5932 5932 5931 5931 5930 5929 5928 5928 5927 5927 5926 5925 5925 5924 5923
5899 5901 5902 5903 5905 5906 5908 5910 5911 5913 5914 5915 5916 5918 5919 5920 5921 5923 5924 5925 5927 5928 5929 5930 5931 5932 5933 5935 5936 5937 5938 5940 5941 5941 5941 5942 5942 5942 5942 5941 5941 5941 5941 5942 5942 5942 5941 5941 5941 5941 5941 5941 5940 5940 5940 5939 5939 5938 5938 5938 5938 5937 5937 5936 5935 5935 5935 5934 5933 5933 5932 5932 5931 5930 5930 5929 5928 5927 5927 5926 5925 5925 5924 5924 5923
5898 5900 5901 5902 5904 5905 5907 5909 5911 5912 5913 5914 5915 5917 5918 5920 5921 5922 5924 5925 5926 5927 5928 5929 5930 5931 5932 5933 5935 5936 5938 5939 5940 5940 5941 5941 5941 5941 5941 5941 5941 5941 5941 5941 5941 5941 5941 5941 5941 5941 5941 5940 5940 5940 5940 5939 5939 5938 5938 5938 5938 5937 5937 5936 5936 5935 5935 5934 5933 5933 5932 5932 5931 5930 5930 5929 5928 5927 5926 5925 5924 5923 5923 5922 5922
5898 5899 5901 5902 5904 5905 5907 5908 5910 5911 5913 5914 5915 5916 5918 5919 5921 5922 5923 5925 5926 5926 5927 5928 5929 5930 5931 5933 5934 5935 5936 5937 5939 5939 5940 5940 5941 5941 5941 5941 5941 5941 5941 5941 5941 5941 5941 5941 5941 5941 5940 5940 5940 5940 5940 5939 5939 5938 5938 5938 5938 5937 5937 5937 5936 5936 5935 5934 5933 5932 5932 5931 5931 5930 5929 5928 5927 5927 5926 5925 5924 5923 5922 5922 5921